Greensboro, NC

8:29 PM EDT on September 23, 2017 (GMT -0400)
Piedmont Triad International

Weather History for KGSO - October, 2014

Change the Weather History Date:

Saturday, October 18, 2014

  Actual Average Record
Temperature  
Mean Temperature 61 °F 59 °F  
Max Temperature 71 °F 70 °F 89 °F (1938)
Min Temperature 51 °F 48 °F 25 °F (1943)
Degree Days  
Heating Degree Days 4 7  
Month to date heating degree days 54 89  
Since 1 July heating degree days 71 120  
Cooling Degree Days 0 1  
Month to date cooling degree days 45 27  
Year to date cooling degree days 1497 1474  
Growing Degree Days 11 (Base 50)    
Moisture  
Dew Point 48 °F    
Average Humidity 70    
Maximum Humidity 100    
Minimum Humidity 39    
Precipitation  
Precipitation 0.00 in 0.10 in 1.97 in (1968)
Month to date precipitation 1.58 1.81  
Year to date precipitation 30.39 34.79  
Sea Level Pressure  
Sea Level Pressure 29.81 in    
Wind  
Wind Speed 9 mph (WNW)    
Max Wind Speed 22 mph    
Max Gust Speed 28 mph    
Visibility 10 miles    
Events      
T = Trace of Precipitation, MM = Missing Value Source: NWS Daily Summary

Daily Weather History Graph

Daily Weather History Graph

Search for Another Location

Airport or City:

Trip Planner

Search our weather history database for the weather conditions in past years. The results will help you decide how hot, cold, wet, or windy it might be!

Date:

Astronomy

Oct. 18, 2014 Rise Set
Actual Time 7:29 AM EDT 6:39 PM EDT
Civil Twilight 7:03 AM EDT 7:05 PM EDT
Nautical Twilight 6:33 AM EDT 7:35 PM EDT
Astronomical Twilight 6:03 AM EDT 8:05 PM EDT
Moon 2:35 AM EDT (10/18) 3:51 PM EDT (10/18)
Length of Visible Light 12h 02m
Length of Day
11h 10m
Waning Crescent, 24% of the Moon is Illuminated
Oct 18
Waning Crescent
Oct 23
New
Oct 30
First Quarter
Nov 6
Full
Nov 14
Last Quarter

Hourly Weather History & Observations

Time (EDT) Temp. Dew Point Humidity Pressure Visibility Wind Dir Wind Speed Gust Speed Precip Events Conditions
12:54 AM 57.9 °F 52.0 °F 81% 29.78 in 10.0 mi WSW 5.8 mph - N/A   Clear
1:54 AM 57.0 °F 53.1 °F 87% 29.76 in 10.0 mi SW 8.1 mph - N/A   Clear
2:54 AM 55.9 °F 53.1 °F 90% 29.76 in 10.0 mi SW 5.8 mph - N/A   Clear
3:54 AM 55.9 °F 53.1 °F 90% 29.76 in 10.0 mi Calm Calm - N/A   Clear
4:54 AM 55.0 °F 52.0 °F 89% 29.75 in 10.0 mi WSW 6.9 mph - N/A   Partly Cloudy
5:54 AM 55.0 °F 53.1 °F 93% 29.77 in 10.0 mi WSW 6.9 mph - N/A   Clear
6:54 AM 52.0 °F 51.1 °F 97% 29.78 in 10.0 mi WSW 3.5 mph - N/A   Partly Cloudy
7:54 AM 53.1 °F 52.0 °F 96% 29.79 in 10.0 mi WSW 4.6 mph - N/A   Mostly Cloudy
8:54 AM 60.1 °F 54.0 °F 80% 29.80 in 10.0 mi WSW 5.8 mph - N/A   Mostly Cloudy
9:54 AM 66.0 °F 54.0 °F 65% 29.80 in 10.0 mi West 6.9 mph - N/A   Mostly Cloudy
10:54 AM 69.1 °F 51.1 °F 53% 29.80 in 10.0 mi WNW 13.8 mph - N/A   Mostly Cloudy
11:54 AM 69.1 °F 48.9 °F 49% 29.80 in 10.0 mi NW 11.5 mph 19.6 mph N/A   Mostly Cloudy
12:54 PM 66.9 °F 46.9 °F 49% 29.81 in 10.0 mi NW 13.8 mph - N/A   Mostly Cloudy
1:54 PM 70.0 °F 46.0 °F 42% 29.79 in 10.0 mi NW 11.5 mph 21.9 mph N/A   Scattered Clouds
2:54 PM 69.1 °F 44.1 °F 40% 29.79 in 10.0 mi NW 17.3 mph 23.0 mph N/A   Scattered Clouds
3:54 PM 69.1 °F 44.1 °F 40% 29.80 in 10.0 mi WNW 17.3 mph - N/A   Scattered Clouds
4:54 PM 68.0 °F 43.0 °F 40% 29.81 in 10.0 mi NW 13.8 mph 23.0 mph N/A   Scattered Clouds
5:54 PM 66.0 °F 43.0 °F 43% 29.83 in 10.0 mi NNW 8.1 mph - N/A   Scattered Clouds
6:54 PM 62.1 °F 43.0 °F 50% 29.86 in 10.0 mi North 4.6 mph - N/A   Mostly Cloudy
7:54 PM 60.1 °F 44.1 °F 55% 29.88 in 10.0 mi NNW 6.9 mph - N/A   Mostly Cloudy
8:54 PM 60.1 °F 44.1 °F 55% 29.90 in 10.0 mi NNW 9.2 mph - N/A   Mostly Cloudy
9:54 PM 57.9 °F 44.1 °F 60% 29.91 in 10.0 mi NNW 10.4 mph - N/A   Scattered Clouds
10:54 PM 55.9 °F 44.1 °F 64% 29.92 in 10.0 mi NNW 5.8 mph - N/A   Partly Cloudy
11:54 PM 54.0 °F 44.1 °F 69% 29.93 in 10.0 mi NW 8.1 mph - N/A   Clear